Evergreen, AL

10:47 AM CST on November 18, 2017 (GMT -0600)
Middleton

Weather History for KGZH - February, 2014

Change the Weather History Date:

Wednesday, February 19, 2014

  Actual Average (KPRN) Record (KPRN)
Temperature  
Mean Temperature 68 °F -  
Max Temperature 80 °F 64 °F 82 °F (1956)
Min Temperature 55 °F 40 °F 19 °F (1958)
Cooling Degree Days 2    
Growing Degree Days 18 (Base 50)    
Moisture  
Dew Point 60 °F    
Average Humidity 82    
Maximum Humidity 94    
Minimum Humidity 42    
Precipitation  
Precipitation 0.00 in - - ()
Sea Level Pressure  
Sea Level Pressure 30.08 in    
Wind  
Wind Speed 5 mph (South)    
Max Wind Speed 16 mph    
Max Gust Speed 23 mph    
Visibility 7 miles    
Events Fog    
Averages and records for this station are not official NWS values.
T = Trace of Precipitation, MM = Missing Value Source: NWS Daily Summary

Daily Weather History Graph

Daily Weather History Graph

Search for Another Location

Airport or City:

Trip Planner

Search our weather history database for the weather conditions in past years. The results will help you decide how hot, cold, wet, or windy it might be!

Date:

Astronomy

Feb. 19, 2014 Rise Set
Actual Time 6:25 AM CST 5:38 PM CST
Civil Twilight 6:01 AM CST 6:03 PM CST
Nautical Twilight 5:32 AM CST 6:31 PM CST
Astronomical Twilight 5:04 AM CST 6:59 PM CST
Moon 10:10 PM CST (2/19) 8:50 AM CST (2/19)
Length of Visible Light 12h 02m
Length of Day
11h 12m
Waning Gibbous, 79% of the Moon is Illuminated
Feb 19
Waning Gibbous
Feb 22
Last Quarter
Mar 1
New
Mar 8
First Quarter
Mar 16
Full

Hourly Weather History & Observations

Time (CST) Temp. Heat Index Dew Point Humidity Pressure Visibility Wind Dir Wind Speed Gust Speed Precip Events Conditions
12:53 AM 57.9 °F - 54.0 °F 87% 30.11 in 10.0 mi Calm Calm - N/A   Clear
1:33 AM 55.9 °F - 53.1 °F 90% 30.11 in 10.0 mi Calm Calm - N/A   Scattered Clouds
1:35 AM 55.9 °F - 53.1 °F 90% 30.11 in 10.0 mi Calm Calm - N/A   Mostly Cloudy
1:53 AM 57.9 °F - 54.0 °F 87% 30.09 in 10.0 mi South 6.9 mph - N/A   Overcast
2:11 AM 60.1 °F - 57.0 °F 90% 30.09 in 9.0 mi SSW 8.1 mph - N/A   Overcast
2:28 AM 60.1 °F - 57.0 °F 90% 30.08 in 6.0 mi South 8.1 mph - N/A   Overcast
2:35 AM 60.1 °F - 57.9 °F 93% 30.08 in 1.5 mi South 6.9 mph - N/A   Overcast
2:46 AM 61.0 °F - 57.9 °F 90% 30.08 in 0.5 mi SSW 6.9 mph - N/A Fog Fog
2:53 AM 61.0 °F - 59.0 °F 93% 30.07 in 0.5 mi SSW 8.1 mph - N/A Fog Fog
3:53 AM 62.1 °F - 60.1 °F 93% 30.09 in 0.8 mi South 3.5 mph - N/A   Mist
4:22 AM 62.1 °F - 60.1 °F 93% 30.10 in 1.0 mi Calm Calm - N/A   Mist
4:31 AM 62.1 °F - 60.1 °F 93% 30.10 in 0.8 mi Calm Calm - N/A   Mist
4:53 AM 61.0 °F - 59.0 °F 93% 30.10 in 0.8 mi Calm Calm - N/A   Mist
5:53 AM 61.0 °F - 59.0 °F 93% 30.11 in 0.5 mi East 3.5 mph - 0.00 in Fog Fog
6:53 AM 62.1 °F - 59.0 °F 90% 30.12 in 0.2 mi SE 3.5 mph - N/A Fog Fog
7:53 AM 63.0 °F - 61.0 °F 93% 30.12 in 0.5 mi Calm Calm - N/A Fog Fog
8:16 AM 64.9 °F - 63.0 °F 93% 30.13 in 1.5 mi South 4.6 mph - N/A   Overcast
8:25 AM 64.9 °F - 63.0 °F 93% 30.13 in 3.0 mi SSW 4.6 mph - N/A   Overcast
8:49 AM 66.2 °F - 64.4 °F 94% 30.13 in 5.0 mi SW 4.6 mph - N/A   Overcast
8:53 AM 66.0 °F - 64.0 °F 93% 30.13 in 6.0 mi SSW 4.6 mph - N/A   Overcast
8:59 AM 66.9 °F - 64.0 °F 90% 30.13 in 6.0 mi SSW 5.8 mph - N/A   Overcast
9:06 AM 68.0 °F - 64.0 °F 87% 30.13 in 6.0 mi SSW 5.8 mph - N/A   Overcast
9:34 AM 69.1 °F - 64.0 °F 84% 30.14 in 8.0 mi SSW 5.8 mph - N/A   Overcast
9:53 AM 69.1 °F - 64.0 °F 84% 30.13 in 8.0 mi SW 3.5 mph - N/A   Overcast
10:32 AM 72.0 °F - 63.0 °F 73% 30.13 in 10.0 mi WSW 6.9 mph - N/A   Mostly Cloudy
10:45 AM 72.0 °F - 62.1 °F 71% 30.13 in 10.0 mi SW 9.2 mph - N/A   Mostly Cloudy
10:53 AM 73.0 °F - 62.1 °F 68% 30.12 in 10.0 mi SSW 10.4 mph - N/A   Scattered Clouds
11:33 AM 73.0 °F - 61.0 °F 66% 30.10 in 10.0 mi West 8.1 mph - N/A   Mostly Cloudy
11:43 AM 73.0 °F - 61.0 °F 66% 30.10 in 10.0 mi Variable 6.9 mph - N/A   Mostly Cloudy
11:53 AM 75.9 °F - 61.0 °F 60% 30.09 in 10.0 mi WSW 9.2 mph - N/A   Mostly Cloudy
12:53 PM 79.0 °F - 55.9 °F 45% 30.05 in 10.0 mi SW 16.1 mph 23.0 mph N/A   Clear
1:53 PM 80.1 °F 80.1 °F 55.0 °F 42% 30.02 in 10.0 mi SW 11.5 mph 21.9 mph N/A   Partly Cloudy
2:53 PM 80.1 °F 80.1 °F 55.0 °F 42% 30.02 in 10.0 mi SW 11.5 mph - N/A   Partly Cloudy
3:53 PM 78.1 °F - 55.9 °F 46% 30.00 in 10.0 mi SW 9.2 mph - N/A   Mostly Cloudy
4:53 PM 75.9 °F - 61.0 °F 60% 30.01 in 10.0 mi South 11.5 mph - N/A   Partly Cloudy
5:53 PM 72.0 °F - 61.0 °F 68% 30.03 in 10.0 mi South 12.7 mph - N/A   Scattered Clouds
6:53 PM 66.9 °F - 61.0 °F 81% 30.04 in 10.0 mi South 8.1 mph - N/A   Clear
7:53 PM 66.9 °F - 62.1 °F 84% 30.05 in 10.0 mi South 9.2 mph - N/A   Clear
8:04 PM 66.0 °F - 62.1 °F 87% 30.06 in 10.0 mi South 9.2 mph - N/A   Scattered Clouds
8:14 PM 66.9 °F - 63.0 °F 87% 30.06 in 10.0 mi South 11.5 mph - N/A   Mostly Cloudy
8:53 PM 66.9 °F - 63.0 °F 87% 30.06 in 10.0 mi South 10.4 mph - N/A   Overcast
9:04 PM 66.9 °F - 63.0 °F 87% 30.07 in 10.0 mi South 8.1 mph - N/A   Overcast
9:53 PM 66.9 °F - 63.0 °F 87% 30.06 in 10.0 mi South 8.1 mph - N/A   Overcast
10:19 PM 68.0 °F - 63.0 °F 84% 30.06 in 10.0 mi SSE 8.1 mph - N/A   Overcast
10:53 PM 66.9 °F - 63.0 °F 87% 30.05 in 10.0 mi SSE 6.9 mph - N/A   Overcast
11:18 PM 66.9 °F - 63.0 °F 87% 30.05 in 10.0 mi SSE 6.9 mph - N/A   Overcast
11:31 PM 66.9 °F - 63.0 °F 87% 30.05 in 10.0 mi South 6.9 mph - N/A   Overcast
11:50 PM 66.2 °F - 62.6 °F 88% 30.05 in 10.0 mi SSE 4.6 mph - N/A   Overcast
11:53 PM 66.9 °F - 63.0 °F 87% 30.04 in 10.0 mi SSE 5.8 mph - N/A   Overcast